SL-16 DEB, 29097

Orbit data source: Space-Track

SL-16 DEB, 29097 is space debris in LEO originally from a launch on Fri, 26 Mar 1993 UTC launched from the Tyuratam Missile And Space Complex (TTMTR). Debris objects in space refer to the collection of defunct objects orbiting the Earth. Examples of debris include non-operational satellites, rocket bodies, and fragments generated from explosions, collisions, or faulty payload assembly.

Loading next visibility...
SL-16 DEB details
Identifier
29097, 1993-016AL
Orbit
LEO
Last TLE update1 day ago
Origin
Flag of CISRVSN RF (CIS)
ManufacturerUnknown
MissionSpacecraft
Bus & MotorUnknown
MassUnknown
Launch date (UTC)
1993-03-26 (32 years ago)
Launch vehicleUnknown
Launch site
Tyuratam Missile And Space Complex (TTMTR)
Object type
Payload
Rocket body
Debris
Shape & HBRUnknown
Radar Cross SectionSmall (<0.1 m²)

Expand to show TLE details & history

TLE from 1 day ago
0 SL-16 DEB
1 29097U 93016AL  24360.26584831  .00000318  00000-0  25534-3 0  9992
2 29097  71.0040 189.1939 0127501 316.1200 218.7319 13.94368214199012
Epoch: 2024-12-25T06:22Z
Definitive object data (Epoch: 2024-12-25T06:22:49.294Z)
Latitude5.64943°
Longitude177.28503°
Altitude988.174 km
Speed7.321 km/s
True Right ascension00h 29m 00s
True Declination5° 37' 01"
Sunlit
Object was in daylight at TLE epoch
Visualization TLE readout
Latitude-49.99335°
Longitude-27.37954°
Altitude840.134 km
Speed7.479 km/s
Apparent Right ascension04h 18m 05s
Apparent Declination-83° 53' 20"
Sunlit
Object is in daylight
Visualization observer readout
Local Sidereal Time11:38:11
Azimuth187.705° SSW
Elevation-41.757°
Doppler factor1
Orbital elements
Apogee altitude1,004.248 km
Perigee altitude818.366 km
Semi-major axis7,289.444 km
Eccentricity0.0127501
Inclination71.004°
RAAN189.1939°
Arg. of periapsis316.12°
True anomaly217.82902°
Mean anomaly218.7319°
Eccentric anomaly218.27934°
Mean motion3.4874 °/min
BSTAR0.00025534
Orbital period103.23 mins
Loading maneuver chart data...
Loading historical data...
Loading historical data...
Loading historical data...
Loading historical data...
Loading historical data...
Loading historical data...
Loading historical data...

SL-16 DEB Visibility forecast

Observer location: undefined°, undefined

Span
Click to sort rows by Start time (UTC) header in descending order
Start Az.
Max El. time (UTC)
Max El. Az.
Max El.
End time (UTC)
End Az.
6 mins2024-12-26 12:39:42.342Z130.674° SE2024-12-26 12:42:42.342Z97.624° ESE16.1°2024-12-26 12:45:42.342Z65.054° ENE
10 mins2024-12-26 14:23:42.342Z216.303° SW2024-12-26 14:27:42.342Z301.419° NW42.801°2024-12-26 14:33:42.342Z18.464° NNE
11 mins2024-12-26 23:25:42.342Z345.436° N2024-12-26 23:30:42.342Z57.981° ENE41.915°2024-12-26 23:36:42.342Z144.656° SSE
7 mins2024-12-27 01:12:42.342Z296.372° NW2024-12-27 01:15:42.342Z263.57° W19.661°2024-12-27 01:19:42.342Z220.876° SW
|